Powrót do katalogu

STARLINK-5485

AktywnyŁącznośćVLEO
NORAD 57261·PAYLOAD·🇺🇸 United States

Wystrzelony Jul 7, 2023 z Vandenberg Space Force Base

Loading…

Następne Przeloty (najbliższe 24 godziny)

TLE

ŚwieżeSource: CelesTrak SupGP

Epoka: Sep 14, 2026, 22:31 UTC

1 57261C 23094AV  26257.93868056  .00019658  00000+0  71190-3 0  2572
2 57261  43.0014  41.8552 0001437 271.1053 304.6894 15.27574134    18

Śledź STARLINK-5485 w czasie rzeczywistym z AllMySat

Download on the App Store